Location: Bruch
(44.2051°N, 0.4120°E)
Time: 09:38:42
(UTC+00:00)

Sich 1 - Pass Details

Date: 29 November 2020
Orbit: 593 x 626 km, 82.5° (Epoch: 26 January)

Event Time Altitude Azimuth Distance (km) Brightness Sun altitude
Rises 06:27:23 0° 197° (SSW) 2,891 6.6 -8.0°
Reaches altitude 10° 06:29:38 10° 201° (SSW) 1,992 5.7 -7.6°
Maximum altitude 06:33:59 58° 281° (W) 731 3.1 -6.9°
Drops below altitude 10° 06:38:24 10° 1° (N) 2,010 5.5 -6.2°
Sets 06:40:40 0° 5° (N) 2,920 6.3 -5.8°
